BTK6606 WARR-WICC

Flight info

Callsign BTK6606
Flight time 1h 3m
Altitude 40000
Route LASEM CUCUT W16 KIDET CA
Aircraft B738/M-SDFGHIRWY/EB2

Departure

Time 2026-04-26 00:19
Airport Juanda International Airport (WARR)

Arrival

Time 2026-04-26 01:22
Airport Husein Sastranegara International Airport (WICC)
Time Latitude Longitude Altitude Speed Heading
2026-04-25 23:50 -7.38344 112.78029 9 ft 0 kts 189°
2026-04-26 00:09 -7.38343 112.78029 18 ft 1 kts 189°
2026-04-26 00:09 -7.38328 112.78032 18 ft 3 kts 195°
2026-04-26 00:09 -7.38309 112.78038 21 ft 3 kts 207°
2026-04-26 00:10 -7.38292 112.78049 21 ft 3 kts 230°
2026-04-26 00:10 -7.38283 112.78063 22 ft 2 kts 271°
2026-04-26 00:10 -7.38284 112.78069 22 ft 0 kts 279°
2026-04-26 00:12 -7.38281 112.78052 15 ft 6 kts 278°
2026-04-26 00:12 -7.38271 112.77986 18 ft 12 kts 278°
2026-04-26 00:13 -7.38237 112.77936 18 ft 5 kts 347°
2026-04-26 00:13 -7.38200 112.77941 18 ft 5 kts
2026-04-26 00:13 -7.38163 112.77947 18 ft 5 kts
2026-04-26 00:13 -7.38127 112.77953 18 ft 5 kts 10°
2026-04-26 00:14 -7.38091 112.77953 18 ft 5 kts 348°
2026-04-26 00:14 -7.38053 112.77914 18 ft 12 kts 287°
2026-04-26 00:14 -7.38038 112.77826 18 ft 13 kts 279°
2026-04-26 00:14 -7.38023 112.77738 19 ft 12 kts 279°
2026-04-26 00:15 -7.38009 112.77653 19 ft 12 kts 279°
2026-04-26 00:15 -7.37996 112.77571 19 ft 12 kts 279°
2026-04-26 00:15 -7.37982 112.77490 19 ft 11 kts 279°
2026-04-26 00:15 -7.37970 112.77411 19 ft 11 kts 278°
2026-04-26 00:16 -7.37958 112.77336 19 ft 11 kts 280°
2026-04-26 00:16 -7.37913 112.77285 19 ft 11 kts 354°
2026-04-26 00:16 -7.37860 112.77304 20 ft 0 kts 27°
2026-04-26 00:17 -7.37855 112.77307 19 ft 3 kts 27°
2026-04-26 00:17 -7.37830 112.77324 19 ft 5 kts 40°
2026-04-26 00:17 -7.37806 112.77355 19 ft 7 kts 59°
2026-04-26 00:17 -7.37781 112.77429 19 ft 16 kts 87°
2026-04-26 00:18 -7.37803 112.77609 18 ft 49 kts 98°
2026-04-26 00:18 -7.37898 112.78202 18 ft 120 kts 99°
2026-04-26 00:18 -7.38043 112.79216 27 ft 174 kts 94°
2026-04-26 00:18 -7.38206 112.80540 435 ft 196 kts 95°
2026-04-26 00:19 -7.38386 112.81834 1633 ft 173 kts 99°
2026-04-26 00:19 -7.38588 112.83016 2497 ft 176 kts 98°
2026-04-26 00:19 -7.38803 112.84368 2706 ft 211 kts 98°
2026-04-26 00:19 -7.38983 112.85873 3183 ft 223 kts 94°
2026-04-26 00:20 -7.38823 112.87499 3401 ft 251 kts 68°
2026-04-26 00:20 -7.37661 112.88978 3364 ft 292 kts 33°
2026-04-26 00:20 -7.35719 112.89499 4324 ft 287 kts 356°
2026-04-26 00:20 -7.33879 112.89147 6000 ft 252 kts 352°
2026-04-26 00:21 -7.32188 112.88897 7070 ft 246 kts 354°
2026-04-26 00:21 -7.30422 112.88690 7400 ft 269 kts 356°
2026-04-26 00:21 -7.28506 112.88511 7803 ft 285 kts 356°
2026-04-26 00:21 -7.26503 112.88347 8481 ft 291 kts 357°
2026-04-26 00:22 -7.24473 112.88195 9267 ft 294 kts 358°
2026-04-26 00:22 -7.22419 112.88049 10005 ft 297 kts 358°
2026-04-26 00:22 -7.20316 112.87905 10425 ft 313 kts 358°
2026-04-26 00:22 -7.18071 112.87754 10738 ft 329 kts 358°
2026-04-26 00:23 -7.15807 112.87432 11294 ft 338 kts 343°
2026-04-26 00:23 -7.13724 112.86254 11965 ft 344 kts 319°
2026-04-26 00:23 -7.12305 112.84350 12616 ft 349 kts 295°
2026-04-26 00:23 -7.11634 112.81990 13277 ft 352 kts 281°
2026-04-26 00:24 -7.11199 112.79545 13880 ft 357 kts 279°
2026-04-26 00:24 -7.10798 112.77066 14443 ft 360 kts 279°
2026-04-26 00:24 -7.10389 112.74563 15035 ft 363 kts 279°
2026-04-26 00:24 -7.09964 112.72049 15614 ft 366 kts 279°
2026-04-26 00:25 -7.09525 112.69531 16178 ft 370 kts 279°
2026-04-26 00:25 -7.09072 112.66976 16747 ft 373 kts 279°
2026-04-26 00:25 -7.08611 112.64393 17302 ft 376 kts 279°
2026-04-26 00:25 -7.08142 112.61780 17852 ft 380 kts 279°
2026-04-26 00:26 -7.07676 112.59183 18333 ft 384 kts 279°
2026-04-26 00:26 -7.07198 112.56520 18784 ft 387 kts 280°
2026-04-26 00:26 -7.06715 112.53835 19271 ft 390 kts 280°
2026-04-26 00:26 -7.06228 112.51131 19750 ft 392 kts 280°
2026-04-26 00:27 -7.05744 112.48438 20234 ft 394 kts 280°
2026-04-26 00:27 -7.05253 112.45714 20715 ft 397 kts 280°
2026-04-26 00:27 -7.04758 112.42965 21165 ft 400 kts 280°
2026-04-26 00:27 -7.04265 112.40222 21617 ft 403 kts 280°
2026-04-26 00:28 -7.03761 112.37426 22063 ft 406 kts 280°
2026-04-26 00:28 -7.03253 112.34604 22468 ft 410 kts 280°
2026-04-26 00:28 -7.02749 112.31807 22898 ft 412 kts 280°
2026-04-26 00:28 -7.02187 112.28962 23360 ft 414 kts 286°
2026-04-26 00:29 -7.01216 112.26229 23731 ft 416 kts 293°
2026-04-26 00:29 -7.00078 112.23535 24083 ft 418 kts 294°
2026-04-26 00:29 -6.98933 112.20836 24467 ft 419 kts 293°
2026-04-26 00:29 -6.97820 112.18112 24841 ft 421 kts 292°
2026-04-26 00:30 -6.96727 112.15365 25175 ft 424 kts 292°
2026-04-26 00:30 -6.95504 112.12654 25524 ft 425 kts 301°
2026-04-26 00:30 -6.93957 112.10147 25862 ft 427 kts 304°
2026-04-26 00:30 -6.92289 112.07664 26196 ft 429 kts 306°
2026-04-26 00:31 -6.90589 112.05186 26530 ft 431 kts 306°
2026-04-26 00:31 -6.88881 112.02679 26886 ft 433 kts 305°
2026-04-26 00:31 -6.87190 112.00163 27219 ft 435 kts 305°
2026-04-26 00:31 -6.85500 111.97617 27553 ft 437 kts 304°
2026-04-26 00:32 -6.83822 111.95069 27912 ft 438 kts 304°
2026-04-26 00:32 -6.82140 111.92501 28240 ft 439 kts 304°
2026-04-26 00:32 -6.78767 111.87346 28845 ft 444 kts 304°
2026-04-26 00:33 -6.77064 111.84743 29142 ft 446 kts 304°
2026-04-26 00:33 -6.75372 111.82159 29434 ft 448 kts 304°
2026-04-26 00:33 -6.73658 111.79541 29678 ft 451 kts 304°
2026-04-26 00:33 -6.71919 111.76888 29840 ft 455 kts 304°
2026-04-26 00:34 -6.70173 111.74224 30058 ft 458 kts 304°
2026-04-26 00:34 -6.68419 111.71548 30306 ft 458 kts 304°
2026-04-26 00:34 -6.66659 111.68862 30570 ft 459 kts 304°
2026-04-26 00:34 -6.64905 111.66186 30836 ft 459 kts 304°
2026-04-26 00:35 -6.63137 111.63491 31074 ft 461 kts 304°
2026-04-26 00:35 -6.61374 111.60798 31288 ft 462 kts 304°
2026-04-26 00:35 -6.59631 111.58067 31495 ft 464 kts 303°
2026-04-26 00:35 -6.57929 111.55349 31710 ft 465 kts 303°
2026-04-26 00:36 -6.56190 111.52554 31922 ft 467 kts 303°
2026-04-26 00:36 -6.54482 111.49810 32123 ft 468 kts 303°
2026-04-26 00:36 -6.52747 111.47029 32321 ft 470 kts 303°
2026-04-26 00:36 -6.51002 111.44241 32495 ft 471 kts 303°
2026-04-26 00:37 -6.49251 111.41447 32651 ft 474 kts 303°
2026-04-26 00:37 -6.47489 111.38640 32813 ft 476 kts 303°
2026-04-26 00:37 -6.45721 111.35824 33043 ft 476 kts 303°
2026-04-26 00:37 -6.43953 111.33009 33294 ft 475 kts 303°
2026-04-26 00:38 -6.42189 111.30199 33512 ft 476 kts 303°
2026-04-26 00:38 -6.40418 111.27380 33699 ft 477 kts 303°
2026-04-26 00:38 -6.38644 111.24556 33928 ft 476 kts 303°
2026-04-26 00:38 -6.36874 111.21737 34181 ft 475 kts 303°
2026-04-26 00:39 -6.35116 111.18938 34432 ft 473 kts 303°
2026-04-26 00:39 -6.33360 111.16143 34657 ft 472 kts 303°
2026-04-26 00:39 -6.31671 111.13357 34849 ft 473 kts 298°
2026-04-26 00:39 -6.30396 111.10308 35042 ft 474 kts 288°
2026-04-26 00:40 -6.29620 111.07085 35233 ft 475 kts 279°
2026-04-26 00:40 -6.29373 111.03762 35437 ft 475 kts 271°
2026-04-26 00:40 -6.29394 111.00453 35647 ft 474 kts 269°
2026-04-26 00:40 -6.29457 110.97146 35841 ft 473 kts 269°
2026-04-26 00:41 -6.29576 110.90541 35887 ft 474 kts 270°
2026-04-26 00:41 -6.29638 110.83927 35885 ft 471 kts 270°
2026-04-26 00:42 -6.29669 110.77346 35888 ft 469 kts 270°
2026-04-26 00:42 -6.29695 110.70808 35886 ft 467 kts 270°
2026-04-26 00:43 -6.29723 110.64323 35887 ft 466 kts 270°
2026-04-26 00:43 -6.29752 110.57794 35891 ft 466 kts 270°
2026-04-26 00:44 -6.29780 110.51278 35891 ft 467 kts 270°
2026-04-26 00:44 -6.29807 110.44763 35889 ft 468 kts 270°
2026-04-26 00:45 -6.29830 110.39267 35893 ft 469 kts 270°
2026-04-26 00:45 -6.29857 110.31641 35888 ft 471 kts 270°
2026-04-26 00:46 -6.29877 110.25034 35893 ft 472 kts 270°
2026-04-26 00:46 -6.29897 110.18462 35890 ft 472 kts 270°
2026-04-26 00:47 -6.29916 110.11844 35885 ft 473 kts 270°
2026-04-26 00:47 -6.29934 110.05256 35884 ft 473 kts 270°
2026-04-26 00:48 -6.29952 109.98615 35886 ft 473 kts 270°
2026-04-26 00:48 -6.29969 109.92005 35881 ft 472 kts 270°
2026-04-26 00:49 -6.29983 109.86523 35885 ft 471 kts 270°
2026-04-26 00:49 -6.30000 109.78862 35884 ft 470 kts 270°
2026-04-26 00:50 -6.30012 109.73359 35880 ft 470 kts 270°
2026-04-26 00:50 -6.30026 109.66831 35879 ft 469 kts 270°
2026-04-26 00:51 -6.30039 109.60287 35884 ft 468 kts 270°
2026-04-26 00:51 -6.30051 109.53732 35884 ft 468 kts 270°
2026-04-26 00:52 -6.30062 109.47194 35885 ft 467 kts 270°
2026-04-26 00:52 -6.30072 109.40643 35885 ft 467 kts 270°
2026-04-26 00:53 -6.30379 109.34096 35525 ft 473 kts 259°
2026-04-26 00:53 -6.31163 109.30927 35309 ft 471 kts 252°
2026-04-26 00:53 -6.32420 109.27886 35072 ft 471 kts 243°
2026-04-26 00:54 -6.33932 109.24970 34860 ft 471 kts 242°
2026-04-26 00:54 -6.35491 109.22050 34630 ft 472 kts 242°
2026-04-26 00:54 -6.37053 109.19135 34411 ft 473 kts 242°
2026-04-26 00:54 -6.38606 109.16212 34189 ft 474 kts 243°
2026-04-26 00:55 -6.40151 109.13276 33960 ft 474 kts 243°
2026-04-26 00:55 -6.41664 109.10375 33738 ft 475 kts 243°
2026-04-26 00:55 -6.43204 109.07408 33478 ft 476 kts 243°
2026-04-26 00:55 -6.44719 109.04480 33227 ft 477 kts 243°
2026-04-26 00:56 -6.46254 109.01513 32989 ft 477 kts 243°
2026-04-26 00:56 -6.47794 108.98535 32733 ft 478 kts 243°
2026-04-26 00:56 -6.49336 108.95553 32481 ft 479 kts 243°
2026-04-26 00:56 -6.50877 108.92575 32239 ft 481 kts 243°
2026-04-26 00:57 -6.52422 108.89591 32015 ft 481 kts 243°
2026-04-26 00:57 -6.53965 108.86608 31775 ft 482 kts 243°
2026-04-26 00:57 -6.55517 108.83610 31533 ft 482 kts 243°
2026-04-26 00:57 -6.57066 108.80615 31301 ft 482 kts 243°
2026-04-26 00:58 -6.58594 108.77661 31069 ft 481 kts 243°
2026-04-26 00:58 -6.60134 108.74682 30836 ft 479 kts 243°
2026-04-26 00:58 -6.61664 108.71724 30608 ft 477 kts 243°
2026-04-26 00:58 -6.63195 108.68762 30382 ft 475 kts 243°
2026-04-26 00:59 -6.64716 108.65819 30155 ft 473 kts 243°
2026-04-26 00:59 -6.66234 108.62878 29915 ft 471 kts 243°
2026-04-26 00:59 -6.67745 108.59954 29657 ft 469 kts 243°
2026-04-26 00:59 -6.69244 108.57051 29389 ft 467 kts 243°
2026-04-26 01:00 -6.70669 108.54132 28882 ft 462 kts 246°
2026-04-26 01:00 -6.71915 108.51164 28376 ft 457 kts 249°
2026-04-26 01:00 -6.73055 108.48227 27896 ft 453 kts 249°
2026-04-26 01:00 -6.74179 108.45268 27391 ft 450 kts 249°
2026-04-26 01:01 -6.75300 108.42337 26919 ft 447 kts 249°
2026-04-26 01:01 -6.76426 108.39436 26437 ft 444 kts 248°
2026-04-26 01:01 -6.77561 108.36551 25952 ft 441 kts 248°
2026-04-26 01:01 -6.78697 108.33687 25475 ft 438 kts 248°
2026-04-26 01:02 -6.79828 108.30849 24988 ft 437 kts 248°
2026-04-26 01:02 -6.80959 108.28017 24505 ft 434 kts 248°
2026-04-26 01:02 -6.82071 108.25234 24030 ft 432 kts 247°
2026-04-26 01:02 -6.83184 108.22445 23677 ft 424 kts 248°
2026-04-26 01:03 -6.84256 108.19754 23567 ft 403 kts 247°
2026-04-26 01:03 -6.85274 108.17200 23466 ft 384 kts 247°
2026-04-26 01:03 -6.86252 108.14744 23213 ft 373 kts 247°
2026-04-26 01:03 -6.87218 108.12323 22849 ft 371 kts 247°
2026-04-26 01:04 -6.88179 108.09912 22465 ft 370 kts 247°
2026-04-26 01:04 -6.89133 108.07516 22084 ft 368 kts 247°
2026-04-26 01:04 -6.90074 108.05155 21740 ft 367 kts 247°
2026-04-26 01:04 -6.91022 108.02773 21398 ft 365 kts 247°
2026-04-26 01:05 -6.91965 108.00405 21055 ft 363 kts 247°
2026-04-26 01:05 -6.92904 107.98044 20707 ft 362 kts 247°
2026-04-26 01:05 -6.93837 107.95701 20358 ft 360 kts 247°
2026-04-26 01:05 -6.94766 107.93367 20020 ft 358 kts 248°
2026-04-26 01:06 -6.95692 107.91038 19691 ft 357 kts 248°
2026-04-26 01:06 -6.96613 107.88721 19375 ft 355 kts 248°
2026-04-26 01:06 -6.97522 107.86434 18992 ft 350 kts 248°
2026-04-26 01:06 -6.98431 107.84143 18552 ft 354 kts 248°
2026-04-26 01:07 -6.99331 107.81874 18266 ft 352 kts 248°
2026-04-26 01:07 -7.00223 107.79626 17956 ft 349 kts 248°
2026-04-26 01:07 -7.01126 107.77350 17502 ft 351 kts 248°
2026-04-26 01:07 -7.02033 107.75064 17057 ft 352 kts 248°
2026-04-26 01:08 -7.02943 107.72767 16624 ft 353 kts 248°
2026-04-26 01:08 -7.03852 107.70473 16193 ft 352 kts 248°
2026-04-26 01:08 -7.04751 107.68207 15753 ft 346 kts 248°
2026-04-26 01:08 -7.05633 107.65979 15322 ft 341 kts 248°
2026-04-26 01:09 -7.06515 107.63752 14916 ft 342 kts 248°
2026-04-26 01:09 -7.07388 107.61550 14518 ft 343 kts 248°
2026-04-26 01:09 -7.08137 107.59264 14096 ft 345 kts 261°
2026-04-26 01:09 -7.08245 107.56850 13702 ft 345 kts 271°
2026-04-26 01:10 -7.08226 107.54418 13251 ft 346 kts 270°
2026-04-26 01:10 -7.08229 107.52000 12798 ft 347 kts 270°
2026-04-26 01:10 -7.08253 107.49573 12354 ft 347 kts 270°
2026-04-26 01:10 -7.08097 107.47182 11906 ft 347 kts 285°
2026-04-26 01:11 -7.07328 107.44898 11498 ft 339 kts 292°
2026-04-26 01:11 -7.06265 107.42824 11047 ft 331 kts 311°
2026-04-26 01:11 -7.04546 107.41355 10616 ft 320 kts 333°
2026-04-26 01:11 -7.02496 107.40579 10220 ft 310 kts 350°
2026-04-26 01:12 -7.00378 107.40471 9821 ft 302 kts
2026-04-26 01:12 -6.98310 107.40675 9375 ft 297 kts
2026-04-26 01:12 -6.96283 107.40345 8904 ft 296 kts 342°
2026-04-26 01:12 -6.94412 107.39505 8474 ft 294 kts 333°
2026-04-26 01:13 -6.92717 107.38368 8048 ft 292 kts 323°
2026-04-26 01:13 -6.91243 107.36963 7594 ft 291 kts 313°
2026-04-26 01:13 -6.90043 107.35337 7181 ft 288 kts 303°
2026-04-26 01:13 -6.89139 107.33572 6766 ft 286 kts 296°
2026-04-26 01:14 -6.88344 107.31745 6353 ft 284 kts 295°
2026-04-26 01:14 -6.87568 107.29905 5932 ft 288 kts 294°
2026-04-26 01:14 -6.86790 107.28057 5762 ft 282 kts 295°
2026-04-26 01:14 -6.85780 107.26382 5431 ft 278 kts 322°
2026-04-26 01:15 -6.84134 107.25602 5465 ft 255 kts 355°
2026-04-26 01:15 -6.82455 107.25861 5348 ft 239 kts 22°
2026-04-26 01:15 -6.80979 107.26549 5237 ft 229 kts 31°
2026-04-26 01:15 -6.79838 107.27567 5108 ft 213 kts 62°
2026-04-26 01:16 -6.79681 107.28958 5050 ft 200 kts 106°
2026-04-26 01:16 -6.80289 107.30157 4979 ft 190 kts 116°
2026-04-26 01:16 -6.80859 107.31351 4799 ft 188 kts 111°
2026-04-26 01:16 -6.81364 107.32562 4522 ft 187 kts 110°
2026-04-26 01:17 -6.81831 107.33778 4458 ft 187 kts 109°
2026-04-26 01:17 -6.82281 107.35013 4451 ft 188 kts 108°
2026-04-26 01:17 -6.82724 107.36258 4404 ft 190 kts 108°
2026-04-26 01:17 -6.83154 107.37495 4404 ft 184 kts 108°
2026-04-26 01:18 -6.83581 107.38687 4371 ft 179 kts 108°
2026-04-26 01:18 -6.84006 107.39909 4429 ft 186 kts 108°
2026-04-26 01:18 -6.84420 107.41126 4448 ft 183 kts 108°
2026-04-26 01:18 -6.84838 107.42352 4410 ft 186 kts 107°
2026-04-26 01:19 -6.85256 107.43571 4380 ft 183 kts 107°
2026-04-26 01:19 -6.85643 107.44765 4372 ft 179 kts 108°
2026-04-26 01:19 -6.86053 107.45954 4412 ft 183 kts 107°
2026-04-26 01:19 -6.86472 107.47161 4267 ft 182 kts 107°
2026-04-26 01:20 -6.86877 107.48353 4046 ft 177 kts 108°
2026-04-26 01:20 -6.87275 107.49500 3812 ft 169 kts 108°
2026-04-26 01:20 -6.87651 107.50587 3655 ft 164 kts 108°
2026-04-26 01:20 -6.88021 107.51658 3440 ft 160 kts 108°
2026-04-26 01:21 -6.88378 107.52713 3235 ft 158 kts 109°
2026-04-26 01:21 -6.88737 107.53756 3018 ft 158 kts 109°
2026-04-26 01:21 -6.89095 107.54801 2755 ft 159 kts 108°
2026-04-26 01:21 -6.89436 107.55834 2608 ft 153 kts 107°
2026-04-26 01:22 -6.89784 107.56828 2420 ft 149 kts 108°
2026-04-26 01:22 -6.90060 107.57625 2429 ft 91 kts 111°
2026-04-26 01:22 -6.90190 107.57997 2428 ft 26 kts 109°
2026-04-26 01:22 -6.90202 107.58034 2433 ft 1 kts 109°
2026-04-26 01:23 -6.90206 107.58044 2431 ft 3 kts 109°
2026-04-26 01:23 -6.90214 107.58060 2429 ft 3 kts 130°
2026-04-26 01:23 -6.90231 107.58068 2431 ft 3 kts 159°
2026-04-26 01:23 -6.90256 107.58066 2431 ft 6 kts 189°
2026-04-26 01:24 -6.90294 107.58042 2426 ft 7 kts 250°
2026-04-26 01:24 -6.90294 107.58011 2426 ft 3 kts 274°
2026-04-26 01:24 -6.90293 107.58003 2427 ft 1 kts 274°
2026-04-26 01:24 -6.90293 107.57998 2425 ft 1 kts 275°
2026-04-26 01:25 -6.90292 107.57994 2424 ft 1 kts 278°
2026-04-26 01:25 -6.90291 107.57989 2423 ft 1 kts 280°
2026-04-26 01:25 -6.90290 107.57985 2422 ft 1 kts 280°
2026-04-26 01:25 -6.90290 107.57981 2424 ft 1 kts 280°
2026-04-26 01:26 -6.90289 107.57977 2423 ft 1 kts 280°
2026-04-26 01:26 -6.90288 107.57973 2423 ft 1 kts 281°
2026-04-26 01:26 -6.90288 107.57970 2424 ft 1 kts 280°
2026-04-26 01:26 -6.90287 107.57965 2424 ft 1 kts 280°
2026-04-26 01:27 -6.90283 107.57946 2423 ft 4 kts 281°
2026-04-26 01:27 -6.90279 107.57925 2430 ft 0 kts 281°
2026-04-26 01:27 -6.90279 107.57924 2429 ft 0 kts 277°
2026-04-26 01:27 -6.90280 107.57923 2429 ft 0 kts 261°
2026-04-26 01:28 -6.90281 107.57923 2424 ft 0 kts 244°
2026-04-26 01:28 -6.90284 107.57922 2423 ft 0 kts 206°
2026-04-26 01:28 -6.90287 107.57922 2423 ft 0 kts 192°
2026-04-26 01:29 -6.90289 107.57922 2423 ft 1 kts 195°
2026-04-26 01:29 -6.90293 107.57920 2423 ft 0 kts 197°
2026-04-26 01:29 -6.90295 107.57920 2424 ft 0 kts 198°